Cecil Field, FL

5:08 PM EDT on April 23, 2017 (GMT -0400)
Cecil

Weather History for KVQQ - March, 2012

Change the Weather History Date:

Tuesday, March 6, 2012

  Actual Average (KNIP) Record (KNIP)
Temperature  
Mean Temperature 52 °F -  
Max Temperature 68 °F 69 °F 87 °F (2003)
Min Temperature 37 °F 51 °F 41 °F (2001)
Degree Days  
Heating Degree Days 12    
Growing Degree Days 2 (Base 50)    
Moisture  
Dew Point 41 °F    
Average Humidity 67    
Maximum Humidity 88    
Minimum Humidity 38    
Precipitation  
Precipitation 0.00 in - - ()
Sea Level Pressure  
Sea Level Pressure 30.45 in    
Wind  
Wind Speed 4 mph (NE)    
Max Wind Speed 23 mph    
Max Gust Speed 23 mph    
Visibility 10 miles    
Events      
Averages and records for this station are not official NWS values.
T = Trace of Precipitation, MM = Missing Value Source: NWS Daily Summary

Daily Weather History Graph

Daily Weather History Graph

Search for Another Location

Airport or City:

Trip Planner

Search our weather history database for the weather conditions in past years. The results will help you decide how hot, cold, wet, or windy it might be!

Date:

Astronomy

Mar. 06, 2012 Rise Set
Actual Time 6:47 AM EST 6:30 PM EST
Civil Twilight 6:23 AM EST 6:54 PM EST
Nautical Twilight 5:55 AM EST 7:22 PM EST
Astronomical Twilight 5:27 AM EST 7:49 PM EST
Moon 4:58 PM EST (3/6) 5:16 AM EST (3/6)
Length of Visible Light 12h 30m
Length of Day
11h 42m
Waxing Gibbous, 96% of the Moon is Illuminated
Mar 6
Waxing Gibbous
Mar 8
Full
Mar 14
Last Quarter
Mar 22
New
Mar 30
First Quarter

Hourly Weather History & Observations

Time (EST) Temp. Windchill Dew Point Humidity Pressure Visibility Wind Dir Wind Speed Gust Speed Precip Events Conditions
12:15 AM 53.6 °F - 28.4 °F 38% 30.41 in 10.0 mi North 6.9 mph - N/A   Clear
12:35 AM 53.6 °F - 30.2 °F 41% 30.41 in 10.0 mi North 6.9 mph - N/A   Clear
12:55 AM 51.8 °F - 30.2 °F 44% 30.41 in 10.0 mi North 3.5 mph - N/A   Clear
1:15 AM 50.0 °F - 30.2 °F 47% 30.41 in 10.0 mi Calm Calm - N/A   Clear
1:35 AM 48.2 °F - 30.2 °F 50% 30.40 in 10.0 mi North 5.8 mph - N/A   Clear
1:55 AM 46.4 °F - 32.0 °F 57% 30.41 in 10.0 mi Calm Calm - N/A   Clear
2:15 AM 44.6 °F - 30.2 °F 57% 30.41 in 10.0 mi Calm Calm - N/A   Clear
2:35 AM 42.8 °F - 32.0 °F 66% 30.40 in 10.0 mi Calm Calm - N/A   Clear
2:55 AM 41.0 °F - 32.0 °F 70% 30.40 in 10.0 mi Calm Calm - N/A   Clear
3:15 AM 37.4 °F - 32.0 °F 81% 30.40 in 10.0 mi Calm Calm - N/A   Clear
3:35 AM 39.2 °F - 32.0 °F 75% 30.40 in 10.0 mi Calm Calm - N/A   Clear
3:55 AM 37.4 °F - 32.0 °F 81% 30.41 in 10.0 mi Calm Calm - N/A   Clear
4:15 AM 37.4 °F - 32.0 °F 81% 30.41 in 10.0 mi Calm Calm - N/A   Clear
4:35 AM 37.4 °F - 32.0 °F 81% 30.42 in 10.0 mi Calm Calm - N/A   Clear
4:55 AM 37.4 °F - 32.0 °F 81% 30.42 in 10.0 mi Calm Calm - N/A   Clear
5:35 AM 37.4 °F - 32.0 °F 81% 30.44 in 10.0 mi Calm Calm - N/A   Clear
5:55 AM 39.2 °F - 32.0 °F 75% 30.44 in 10.0 mi Calm Calm - N/A   Clear
6:15 AM 37.4 °F - 32.0 °F 81% 30.45 in 10.0 mi Calm Calm - N/A   Clear
6:50 AM 37.4 °F 32.8 °F 32.0 °F 81% 30.45 in 10.0 mi North 5.8 mph - N/A   Clear
7:50 AM 44.6 °F 40.2 °F 41.0 °F 87% 30.47 in 10.0 mi North 8.1 mph - N/A   Clear
8:50 AM 60.8 °F - 46.4 °F 59% 30.49 in 10.0 mi NE 6.9 mph - N/A   Clear
9:50 AM 66.2 °F - 50.0 °F 56% 30.50 in 10.0 mi NE 13.8 mph - N/A   Partly Cloudy
10:50 AM 68.0 °F - 48.2 °F 49% 30.50 in 10.0 mi ENE 13.8 mph 23.0 mph N/A   Mostly Cloudy
11:50 AM 68.0 °F - 50.0 °F 52% 30.51 in 10.0 mi East 23.0 mph - N/A   Mostly Cloudy
12:50 PM 68.0 °F - 50.0 °F 52% 30.49 in 10.0 mi East 11.5 mph 23.0 mph N/A   Mostly Cloudy
3:50 PM 68.0 °F - 48.2 °F 49% 30.46 in 10.0 mi ENE 10.4 mph 16.1 mph N/A   Mostly Cloudy
4:50 PM 68.0 °F - 48.2 °F 49% 30.47 in 10.0 mi East 4.6 mph - N/A   Scattered Clouds
6:50 PM 62.6 °F - 53.6 °F 72% 30.47 in 10.0 mi NNE 10.4 mph - N/A   Overcast
7:50 PM 59.0 °F - 53.6 °F 82% 30.47 in 10.0 mi NNE 5.8 mph - N/A   Overcast
8:55 PM 57.2 °F - 53.6 °F 88% 30.48 in 10.0 mi Calm Calm - N/A   Partly Cloudy
9:15 PM 57.2 °F - 53.6 °F 88% 30.48 in 10.0 mi Calm Calm - N/A   Clear
9:35 PM 57.2 °F - 53.6 °F 88% 30.48 in 10.0 mi ENE 3.5 mph - N/A   Clear
10:15 PM 60.8 °F - 50.0 °F 68% 30.49 in 10.0 mi Calm Calm - N/A   Clear
10:35 PM 60.8 °F - 50.0 °F 68% 30.49 in 10.0 mi Calm Calm - N/A   Clear
10:55 PM 59.0 °F - 50.0 °F 72% 30.49 in 10.0 mi Calm Calm - N/A   Clear
11:15 PM 59.0 °F - 50.0 °F 72% 30.49 in 10.0 mi Calm Calm - N/A   Partly Cloudy
11:35 PM 60.8 °F - 50.0 °F 68% 30.49 in 10.0 mi Calm Calm - N/A   Mostly Cloudy
11:55 PM 59.0 °F - 50.0 °F 72% 30.49 in 10.0 mi Calm Calm - N/A   Overcast